Regional Weather Roundup
Issued by NWS

Home | Current Version | Previous Version | Text Only | Print | Product List | Glossary On
Versions: 1 2 3 4 5 6 7 8 9 10 11 12 13 14 15 16 17 18 19 20 21 22 23 24 25 26 27 28 29 30 31 32 33 34 35 36 37 38 39 40 41 42 43 44 45 46 47 48 49 50
000
ASUS44 KMEG 221210
RWRTN
TENNESSEE HOURLY STATE WEATHER ROUNDUP
NATIONAL WEATHER SERVICE MEMPHIS TN
700 AM CDT WED OCT 22 2014

TNZ002-004-019-021-049-052-054-088>092-221300-
WEST TENNESSEE

CITY           SKY/WX    TMP DP  RH WIND       PRES   REMARKS
MEMPHIS INTL   CLEAR     52  45  77 NE5       30.21R
JACKSON        CLEAR     43  40  89 CALM      30.22R
DYERSBURG      CLEAR     45  34  65 NE3       30.25R
UNION CITY     CLEAR     43  39  87 N3        30.22R
PARIS          CLEAR     37  36  93 NE5       30.23R WCI  34
LEXINGTON      CLEAR     39  37  93 NE5       30.19R
SAVANNAH       CLEAR     37  37 100 CALM      30.20R
$$

TNZ008-025-027-028-033-062-065-066-221300-
NORTH MIDDLE TENNESSEE

CITY           SKY/WX    TMP DP  RH WIND       PRES   REMARKS
NASHVILLE      CLEAR     44  41  89 NE5       30.22R
CLARKSVILLE    CLEAR     42  39  89 NE5       30.23R
SMYRNA         CLEAR     40  38  93 N5        30.23R
COOKEVILLE     CLEAR     39  39 100 NE3       30.19S
CROSSVILLE     PTCLDY    42  38  85 NE6       30.18R
$$

TNZ061-075-076-078-094-096-097-221300-
SOUTH MIDDLE TENNESSEE

CITY           SKY/WX    TMP DP  RH WIND       PRES   REMARKS
FAYETTEVILLE   CLEAR     41  37  87 NE3       30.17R
TULLAHOMA      CLEAR     43  39  87 N5        30.18R
WINCHESTER     CLEAR     34  34 100 CALM      30.18R
MCMINNVILLE    CLEAR     37  37 100 CALM      30.19R
COLUMBIA       CLEAR     39  39 100 CALM      30.18S
SHELBYVILLE    CLEAR     41  41 100 CALM      30.20R
$$

TNZ017-018-042-046-047-221300-
NORTHEAST TENNESSEE

CITY           SKY/WX    TMP DP  RH WIND       PRES   REMARKS
TRI CITIES     MOCLDY    46  37  71 N8        30.16R
ELIZABETHTON   CLOUDY    45  36  70 W6        30.14R
$$

TNZ012-013-036-069-073-074-221300-
CENTRAL EAST TENNESSEE

CITY           SKY/WX    TMP DP  RH WIND       PRES   REMARKS
KNOXVILLE      PTCLDY    44  41  89 N6        30.17R
OAK RIDGE      CLEAR     41  38  89 CALM      30.19R
GATLINBURG     MOSUNNY   36  36 100 CALM      30.17R
MORRISTOWN     SUNNY     43  41  93 CALM      30.17R
$$

TNZ083-085-099-221300-
SOUTHEAST TENNESSEE

CITY           SKY/WX    TMP DP  RH WIND       PRES   REMARKS
CHATTANOOGA    CLEAR     45  39  79 CALM      30.17R
$$

SKY/WX REPORTED AS FAIR MEANS FEW OR NO CLOUDS BELOW
12 THOUSAND FEET.




USA.gov is the U.S. government's official web portal to all federal, state and local government web resources and services.